Location: Unspecified
(35.6961°N, 0.0000°E)
Time: 19:15:00
(UTC+00:00)

deb Explorer IX - All Passes

Search period start: 26 May 2019 00:00
Search period end: 05 June 2019 00:00
Orbit: 538 x 1114 km, 38.8° (Epoch: 25 May)

Date Brightness Start Highest point End Pass type
(mag) Time Alt. Az. Time Alt. Az. Time Alt. Az.
26 May - 01:18:48 10° WSW 01:22:56 88° NNW 01:27:00 10° ENE visible
26 May - 03:05:57 10° WNW 03:09:55 54° N 03:14:06 10° E visible
26 May - 04:52:44 10° WNW 04:56:55 88° SSW 05:01:37 10° ESE daylight
26 May - 06:39:49 10° W 06:43:37 27° SSW 06:47:53 10° SSE daylight
26 May - 23:11:02 10° SSW 23:14:46 26° SSE 23:18:14 10° E night (unlit)
27 May - 00:57:09 10° WSW 01:01:20 86° NNW 01:05:23 10° ENE visible
27 May - 02:44:22 10° WNW 02:48:20 54° N 02:52:26 10° E visible
27 May - 04:31:11 10° WNW 04:35:18 86° SSW 04:39:52 10° ESE daylight
27 May - 06:18:20 10° W 06:21:57 25° SSW 06:25:59 10° SSE daylight
27 May - 22:49:13 10° SSW 22:53:08 28° SSE 22:56:43 10° E night (unlit)
28 May - 00:35:28 10° WSW 00:39:45 85° NNW 00:43:48 10° ENE visible
28 May - 02:22:45 10° WNW 02:26:45 54° N 02:30:47 10° E visible
28 May - 04:09:37 10° WNW 04:13:43 84° SSW 04:18:08 10° ESE visible
28 May - 05:56:51 10° W 06:00:19 23° SSW 06:04:06 10° SSE daylight
28 May - 22:27:22 10° SSW 22:31:30 29° SSE 22:35:13 10° E night (unlit)
29 May - 00:13:46 10° WSW 00:18:09 83° NNW 00:22:13 10° ENE visible
29 May - 02:01:08 10° WNW 02:05:09 54° N 02:09:10 10° E visible
29 May - 03:48:03 10° WNW 03:52:07 83° SSW 03:56:25 10° ESE visible
29 May - 05:35:22 10° W 05:38:40 22° SSW 05:42:14 10° SSE daylight
29 May - 22:05:31 10° SSW 22:09:51 31° SSE 22:13:43 10° E night (unlit)
29 May - 23:52:03 10° WSW 23:56:34 82° NNW 00:00:39 10° ENE night (unlit)
30 May - 01:39:30 10° WNW 01:43:34 54° N 01:47:33 10° E visible
30 May - 03:26:28 10° WNW 03:30:31 81° SSW 03:34:43 10° ESE visible
30 May - 05:13:53 10° W 05:17:02 21° SSW 05:20:23 10° SSE daylight
30 May - 21:43:39 10° SW 21:48:12 33° SSE 21:52:12 10° E visible
30 May - 23:30:18 10° WSW 23:34:57 81° NNW 23:39:06 10° ENE night (unlit)
31 May - 01:17:49 10° WNW 01:21:59 55° N 01:25:57 10° E visible
31 May - 03:04:52 10° WNW 03:08:55 79° SSW 03:13:03 10° ESE visible
31 May - 04:52:24 10° W 04:55:23 20° SSW 04:58:32 10° SSE daylight
31 May - 21:21:45 10° SW 21:26:32 35° SSE 21:30:42 10° E visible
31 May - 23:08:32 10° WSW 23:13:19 80° NNW 23:17:32 10° ENE night (unlit)
01 Jun - 00:56:08 10° WNW 01:00:23 55° N 01:04:23 10° E visible
01 Jun - 02:43:14 10° WNW 02:47:19 77° SSW 02:51:24 10° ESE visible
01 Jun - 04:30:53 10° WSW 04:33:45 18° SSW 04:36:43 10° SSE daylight
01 Jun - 20:59:51 10° SW 21:04:51 37° SSE 21:09:11 10° E visible
01 Jun - 22:46:44 10° WSW 22:51:42 79° NNW 22:56:00 10° ENE visible
02 Jun - 00:34:26 10° WNW 00:38:47 56° N 00:42:48 10° E night (unlit)
02 Jun - 02:21:36 10° WNW 02:25:43 75° SSW 02:29:45 10° ESE visible
02 Jun - 04:09:23 10° WSW 04:12:07 18° SW 04:14:56 10° S visible
02 Jun - 20:37:55 10° SW 20:43:10 39° SSE 20:47:40 10° E visible
02 Jun - 22:24:56 10° WSW 22:30:03 78° NNW 22:34:28 10° ENE visible
03 Jun - 00:12:41 10° WNW 00:17:11 57° N 00:21:15 10° E night (unlit)
03 Jun - 01:59:56 10° WNW 02:04:07 73° SSW 02:08:08 10° ESE visible
03 Jun - 03:47:51 10° WSW 03:50:29 17° SW 03:53:08 10° S visible
03 Jun - 18:33:09 10° SSE 18:34:47 11° SE 18:36:21 10° SE daylight
03 Jun - 20:16:00 10° SW 20:21:27 41° SSE 20:26:07 10° E visible
03 Jun - 22:03:05 10° W 22:08:24 77° NNW 22:12:55 10° ENE visible
03 Jun - 23:50:55 10° WNW 23:55:34 58° N 23:59:42 10° E visible
04 Jun - 01:38:15 10° WNW 01:42:31 71° SSW 01:46:32 10° ESE night (unlit)
04 Jun - 03:26:19 10° WSW 03:28:50 16° SW 03:31:23 10° S visible
04 Jun - 18:10:41 10° SSE 18:13:01 12° SE 18:15:14 10° ESE daylight
04 Jun - 19:54:03 10° SW 19:59:44 43° SSE 20:04:35 10° E visible
04 Jun - 21:41:14 10° W 21:46:44 77° NNW 21:51:23 10° ENE visible
04 Jun - 23:29:09 10° WNW 23:33:57 59° N 23:38:09 10° E visible
